Home > Time Zones > World Clock > Weather > Germany > Ulm > Past weeks

Flag for Germany Weather past 2 weeks in Ulm, Baden-Württemberg, Germany

Now
46 °F

Scattered clouds.


Feels Like: 44 °F
Forecast: 49 / 67 °F
Wind: 6 mph from Northeast

Location: Laupheim Airport


UV Index: 3 (Moderate)

Visibility: N/A


Pressure: 29.86 "Hg

Humidity: 87%

Dew point: 43 °F

Location of UlmLocation

Historic Weather in Ulm

°F

Ulm temperature yesterday

Maximum temperature yesterday: 70 °F (at 4:20 PM)
Minimum temperature yesterday: 41 °F (at 6:20 AM)
Average temperature yesterday: 57 °F

Past Weeks' High & Low Weather Summary

 TemperatureHumidityPressure
High70 °F (Apr 24, 4:20 PM)100% (Apr 11, 5:20 AM)30.33 "Hg (Apr 11, 5:20 AM)
Low28 °F (Apr 16, 6:20 AM)23% (Apr 17, 6:20 PM)29.62 "Hg (Apr 21, 5:20 AM)
Average48 °F69%29.99 "Hg
* Reported Apr 10 7:20 AM — Apr 25 7:20 AM, Ulm, Weather by CustomWeather, © 2014

Note: Actual official high and low records may vary slightly from our data, if they occured in-between our weather recording intervals... More about our weather records

Advertising

Historic Weather Conditions — Data for Previous 24 hours

 ConditionsComfort  
Time TempWeatherWind HumidityBarometerVisibility
7:20 AM
Apr 25
46 °FScattered clouds.6 mph87%29.86 "HgN/A
6:20 AM45 °FPassing clouds.6 mph87%29.86 "HgN/A
5:20 AM45 °FPassing clouds.6 mph87%29.86 "HgN/A
4:20 AM45 °FPassing clouds.6 mph87%29.86 "HgN/A
3:20 AM46 °FPassing clouds.6 mph76%29.89 "HgN/A
2:20 AM50 °FPassing clouds.6 mph71%29.89 "HgN/A
1:20 AM50 °FPassing clouds.6 mph71%29.89 "HgN/A
12:20 AM54 °FPassing clouds.5 mph63%29.92 "HgN/A
11:20 PM
Apr 24
57 °FPassing clouds.6 mph55%29.92 "HgN/A
10:20 PM59 °FPassing clouds.7 mph51%29.95 "HgN/A
9:20 PM59 °FPassing clouds.6 mph55%29.95 "HgN/A
8:20 PM63 °FPassing clouds.7 mph45%29.95 "HgN/A
7:20 PM64 °FPassing clouds.9 mph46%29.95 "HgN/A
6:20 PM68 °FPassing clouds.13 mph38%29.95 "HgN/A
5:20 PM68 °FPassing clouds.8 mph38%29.98 "HgN/A
4:20 PM70 °FScattered clouds.9 mph35%29.98 "HgN/A
3:20 PM68 °FScattered clouds.7 mph38%30.01 "HgN/A
2:20 PM68 °FScattered clouds.8 mph43%30.04 "HgN/A
1:20 PM66 °FScattered clouds.8 mph46%30.04 "HgN/A
12:20 PM64 °FPassing clouds.3 mph52%30.07 "HgN/A
11:20 AM63 °FPassing clouds.2 mph59%30.07 "HgN/A
10:20 AM57 °FPassing clouds.2 mph67%30.09 "HgN/A
9:20 AM54 °FPassing clouds.2 mph72%30.09 "HgN/A
8:20 AM50 °FCool.2 mph76%30.09 "HgN/A
Weather by CustomWeather, © 2014

See weather overview